Location: Unspecified
(0.0000°N, 0.0000°E)
Time: 16:39:28
(UTC+00:00)

Hubble Space Telescope - Pass Details

Date: 15 December 2018
Orbit: 537 x 540 km, 28.5° (Epoch: 11 December)

Event Time Altitude Azimuth Distance (km) Brightness Sun altitude
Exits shadow 04:52:03 12° 345° (NNW) 1,652 2.9 -14.4°
Maximum altitude 04:54:41 20° 29° (NNE) 1,255 2.7 -13.8°
Drops below altitude 10° 04:57:47 10° 78° (ENE) 1,782 4.3 -13.1°
Sets 05:00:30 0° 95° (E) 2,674 5.8 -12.5°
